{"data":{"norad_id":53841,"intl_designator":"2022-114Z","name":"STARLINK-4750","alt_names":[],"object_type":"PAYLOAD","status":"ACTIVE","operator":null,"country":"US","launch_date":"2022-09-19","launch_site_code":"AFETR","launch_vehicle":null,"mission":null,"orbit_class":"UNKNOWN","rcs_meters":null,"size_class":null,"mass_kg":null,"dimensions":null,"purposes":["comms"],"wikipedia_slug":null,"has_3d_model":false,"image_url":null,"decayed_at":null,"tle_current":{"epoch":"2026-09-20T22:00:03.000096Z","epoch_age_seconds":48065,"freshness":"FRESH","line1":"1 53841U 22114Z   26263.91670139  .00021568  00000+0  11108-2 0  9990","line2":"2 53841  53.1604 136.7780 0001950  98.7917  66.5676 15.16362218  5792","mean_motion":15.16362218,"eccentricity":0.000195,"inclination_deg":53.1604,"raan_deg":136.778,"arg_perigee_deg":98.7917,"mean_anomaly_deg":66.5676,"bstar":0.0011108,"rev_number":579,"period_min":94.964117603727,"perigee_km":515.50155733456,"apogee_km":518.19060073539,"semimajor_km":6894.983079035,"source":"CELESTRAK","updated_at":"2026-09-21T09:00:33.021128Z"}}}